Regional Weather Roundup
Issued by NWS Newport/Morehead, NC

Home | Current Version | Previous Version | Text Only | Print | Product List | Glossary On
Versions: 1 2 3 4 5 6 7 8 9 10 11 12 13 14 15 16 17 18 19 20 21 22 23 24 25 26 27 28 29 30 31 32 33 34 35 36 37 38 39 40 41 42 43 44 45 46 47 48 49 50
000
ASUS42 KMHX 231622
RWRMHX
WEATHER ROUNDUP FOR EASTERN NORTH CAROLINA
NATIONAL WEATHER SERVICE NEWPORT/MOREHEAD CITY NC
1200 PM EDT SAT AUG 23 2014

NOTE: "FAIR" INDICATES FEW OR NO CLOUDS BELOW 12,000 FEET
WITH NO SIGNIFICANT WEATHER AND/OR OBSTRUCTIONS TO VISIBILITY

NCZ015>017-031-032-045>047-102-103-231700-
NORTH COAST

CITY           SKY/WX    TMP DP  RH WIND       PRES   REMARKS
EDENTON        PTSUNNY   81  72  75 SE6       29.97F
ELIZABETH CITY CLOUDY    80  72  76 NE6       29.98S
KITTY HAWK     CLOUDY    79  70  74 E7        29.97R
MANTEO         CLOUDY    79  72  78 NE13      29.98R

$$

NCZ045>047-081-094-103-104-231700-
CENTRAL COAST

CITY           SKY/WX    TMP DP  RH WIND       PRES   REMARKS
FRISCO         PTSUNNY   81  70  69 NE7       29.96S
SWANQUARTER      N/A     82 N/A N/A E1        29.94S

$$

NCZ095-097-098-100-101-231700-
SOUTHERN COAST

CITY           SKY/WX    TMP DP  RH WIND       PRES   REMARKS
BEAUFORT       MOSUNNY   83  75  77 E6        29.95F
CEDAR ISLAND     N/A     82 N/A N/A NE6       30.00S
JACKSONVILLE   CLOUDY    81  76  84 E9        29.93F
NEWPORT        NOT AVBL
PINEY ISLAND   LGT RAIN  83  76  79 NE10      29.96S
WILMINGTON     PTSUNNY   83  78  85 NE9       29.93F


$$

NCZ011>013-027>030-043-044-078>080-089-090>093-098-231700-
COASTAL PLAIN

CITY           SKY/WX    TMP DP  RH WIND       PRES   REMARKS
AHOSKIE        MOSUNNY   78  71  78 NE6       29.99S
CLINTON        MOSUNNY   85  77  77 SE3       29.95F
ELIZABETHTOWN  PTSUNNY   85  73  67 CALM      29.93F
GOLDSBORO      MOSUNNY   84  79  84 SE6       29.93F
GREENVILLE     MOSUNNY   81  73  78 E6        29.98F
HAVELOCK       PTSUNNY   84  73  69 E9        29.96F
KENANSVILLE    PTSUNNY   83  74  75 E5        29.95F
KINSTON        MOSUNNY   82  75  78 E3        29.97S
NEW BERN       PTSUNNY   84  74  71 NE7       29.97S
RICHLANDS      PTSUNNY   82  75  78 NE8       29.94F
ROANOKE RAPIDS NOT AVBL
ROCKY MOUNT    PTSUNNY   80  73  79 E5        29.98S
WASHINGTON     MOSUNNY   80  72  75 E6        29.97F
WHITEVILLE     MOSUNNY   87  76  71 NE5       29.92F

$$

AMZ130-135-150-152-154-156-158-170-250-252-270-ANZ085-086-088-633-658-670-231700-
MARINE OBSERVATIONS

STATION/POSITION TIME  TEMP    WIND        PRES    WAVE   SWELL
                       AIR SEA DIR/SP/G            HT/PER HT/PER
                 (UTC) (F)     (DEG/KT/KT) (MB)    (FT/S) (FT/S)
CHESAPEAKE LIGHT 1600   75      70/ 13/ 14 1016.2
BUOY 44014       1600   77 78   50/  8/ 10 1014.9    3/ 5   2/ 5
DUCK             1600   78 80   70/ 13/ 14 1014.4
2E DUCK          1600                        N/A     3/ 7
OREGON INLET     1600   79 81   50/ 11/ 14 1014.7
BUOY 44095       1600      80                N/A     3/ 8
20E OREGON INLET NOT AVBL
HATTERAS CG      1600   81 81   50/  7/ 10 1015.1
DIAMOND BUOY     1600   78     350/  8/ 10 1014.4    2/ 8   2/ 8
CAPE LOOKOUT     1600   78      80/ 10/ 11 1014.1
BEAUFORT LAB     1600   81 83  100/  5/  7 1014.0
30 SE NEW RIVER  1600   81 83  100/ 12/ 12 1013.5    1/ 8   2/ 8
5 SE WRIGHTSVILL 1600   78 83   90/ 12/ 14   N/A
BUOY 41002       1511   82 82  290/  4/  6 1015.3    3/ 4   2/ 4
BUOY 41004       1600   85 85  270/  8/  8 1012.6    2/ 4   2/ 5

$$



USA.gov is the U.S. government's official web portal to all federal, state and local government web resources and services.